• In Lithuania
  • List of Countries
  • For 7 days
  • Water Temperature
  • Satellite Maps
  • Weather Map
  • Weather Widgets
  • user-avatar
    Login

    Hourly Weather Mingachevir

    Today, 26 April, Thursday

    Time Temperature Precipitation Wind Pressure Humidity
    00:00 +16°C° 0 mm 2 mps 755 mmHg 70%
    01:00 +15°C° 0 mm 1 mps 755 mmHg 73%
    02:00 +15°C° 0 mm 1 mps 755 mmHg 77%
    03:00 +14°C° 0 mm 1 mps 755 mmHg 79%
    04:00 +15°C° 0 mm 1 mps 755 mmHg 78%
    05:00 +15°C° 0 mm 1 mps 755 mmHg 77%
    06:00 +14°C° 0 mm 0 mps 755 mmHg 75%
    07:00 +18°C° 0 mm 1 mps 755 mmHg 67%
    08:00 +20°C° 0 mm 1 mps 755 mmHg 58%
    09:00 +21°C° 0 mm 2 mps 755 mmHg 47%
    10:00 +23°C° 0 mm 2 mps 754 mmHg 42%
    11:00 +25°C° 0 mm 2 mps 754 mmHg 38%
    12:00 +26°C° 0 mm 1 mps 754 mmHg 34%
    13:00 +26°C° 0 mm 2 mps 754 mmHg 33%
    14:00 +27°C° 0 mm 2 mps 753 mmHg 33%
    15:00 +27°C° 0 mm 2 mps 753 mmHg 32%
    16:00 +27°C° 0 mm 2 mps 753 mmHg 36%
    17:00 +26°C° 0 mm 2 mps 753 mmHg 40%
    18:00 +25°C° 0 mm 2 mps 753 mmHg 45%
    19:00 +24°C° 0 mm 2 mps 754 mmHg 49%
    20:00 +21°C° 0 mm 3 mps 754 mmHg 53%
    21:00 +20°C° 0 mm 3 mps 755 mmHg 58%
    22:00 +19°C° 0 mm 3 mps 755 mmHg 61%
    23:00 +18°C° 0 mm 2 mps 755 mmHg 63%

    Tomorrow, 27 April, Friday

    Time Temperature Precipitation Wind Pressure Humidity
    00:00 +17°C° 0 mm 2 mps 755 mmHg 66%
    01:00 +17°C° 0 mm 2 mps 755 mmHg 67%
    02:00 +16°C° 0 mm 2 mps 755 mmHg 68%
    03:00 +16°C° 0 mm 1 mps 754 mmHg 69%
    04:00 +16°C° 0 mm 1 mps 755 mmHg 68%
    05:00 +16°C° 0 mm 1 mps 755 mmHg 67%
    06:00 +15°C° 0 mm 0 mps 755 mmHg 66%
    07:00 +19°C° 0 mm 1 mps 755 mmHg 60%
    08:00 +21°C° 0 mm 1 mps 755 mmHg 53%
    09:00 +23°C° 0 mm 1 mps 755 mmHg 47%
    10:00 +24°C° 0 mm 2 mps 754 mmHg 44%
    11:00 +25°C° 0 mm 2 mps 754 mmHg 41%
    12:00 +26°C° 0 mm 3 mps 753 mmHg 38%
    13:00 +27°C° 0 mm 3 mps 753 mmHg 37%
    14:00 +27°C° 0 mm 4 mps 752 mmHg 37%
    15:00 +28°C° 0 mm 4 mps 752 mmHg 37%
    16:00 +27°C° 0 mm 4 mps 752 mmHg 40%
    17:00 +26°C° 0 mm 3 mps 752 mmHg 44%
    18:00 +25°C° 0 mm 3 mps 752 mmHg 48%
    19:00 +24°C° 0 mm 2 mps 752 mmHg 48%
    20:00 +23°C° 0 mm 2 mps 753 mmHg 48%
    21:00 +21°C° 0 mm 2 mps 753 mmHg 48%
    22:00 +21°C° 0 mm 1 mps 752 mmHg 49%
    23:00 +21°C° 0 mm 1 mps 752 mmHg 50%

    Day after tomorrow, 28 April, Saturday

    Time Temperature Precipitation Wind Pressure Humidity
    00:00 +20°C° 0 mm 1 mps 751 mmHg 51%
    01:00 +20°C° 0 mm 1 mps 751 mmHg 51%
    02:00 +18°C° 0 mm 2 mps 751 mmHg 51%
    03:00 +18°C° 0 mm 2 mps 751 mmHg 51%
    04:00 +18°C° 0 mm 2 mps 751 mmHg 51%
    05:00 +18°C° 0 mm 2 mps 751 mmHg 52%
    06:00 +19°C° 0 mm 3 mps 751 mmHg 53%
    07:00 +21°C° 0 mm 3 mps 751 mmHg 48%
    08:00 +22°C° 0 mm 3 mps 751 mmHg 44%
    09:00 +25°C° 0 mm 4 mps 751 mmHg 39%
    10:00 +26°C° 0 mm 3 mps 751 mmHg 37%
    11:00 +28°C° 0 mm 3 mps 751 mmHg 35%
    12:00 +29°C° 0 mm 3 mps 751 mmHg 33%
    13:00 +29°C° 0 mm 2 mps 751 mmHg 33%
    14:00 +29°C° 0 mm 2 mps 751 mmHg 32%
    15:00 +29°C° 0 mm 2 mps 751 mmHg 32%
    16:00 +28°C° 0 mm 2 mps 751 mmHg 36%
    17:00 +27°C° 0 mm 2 mps 751 mmHg 40%
    18:00 +26°C° 0 mm 2 mps 751 mmHg 44%
    19:00 +25°C° 0 mm 2 mps 752 mmHg 46%
    20:00 +24°C° 0 mm 2 mps 753 mmHg 49%
    21:00 +23°C° 0 mm 2 mps 753 mmHg 51%
    22:00 +21°C° 0 mm 2 mps 753 mmHg 52%
    23:00 +21°C° 0 mm 2 mps 753 mmHg 54%

    29 April, Sunday

    Time Temperature Precipitation Wind Pressure Humidity
    00:00 +21°C° 0 mm 2 mps 754 mmHg 55%
    01:00 +20°C° 0.1 mm 2 mps 754 mmHg 56%
    02:00 +20°C° 0.1 mm 2 mps 754 mmHg 57%
    03:00 +20°C° 0.1 mm 1 mps 754 mmHg 59%
    04:00 +21°C° 0 mm 1 mps 754 mmHg 60%
    05:00 +21°C° 0 mm 1 mps 754 mmHg 60%
    06:00 +21°C° 0 mm 1 mps 754 mmHg 61%
    07:00 +22°C° 0 mm 1 mps 754 mmHg 57%
    08:00 +23°C° 0 mm 1 mps 754 mmHg 53%
    09:00 +25°C° 0 mm 1 mps 754 mmHg 48%
    10:00 +26°C° 0 mm 2 mps 754 mmHg 45%
    11:00 +27°C° 0 mm 2 mps 754 mmHg 42%
    12:00 +28°C° 0 mm 2 mps 754 mmHg 40%
    13:00 +28°C° 0.1 mm 3 mps 754 mmHg 39%
    14:00 +29°C° 0.1 mm 3 mps 753 mmHg 38%
    15:00 +29°C° 0.1 mm 4 mps 753 mmHg 38%
    16:00 +28°C° 0.1 mm 4 mps 753 mmHg 42%
    17:00 +27°C° 0.1 mm 4 mps 753 mmHg 46%
    18:00 +26°C° 0.1 mm 5 mps 753 mmHg 50%
    19:00 +23°C° 0 mm 5 mps 754 mmHg 53%
    20:00 +22°C° 0 mm 4 mps 754 mmHg 55%
    21:00 +21°C° 0 mm 4 mps 755 mmHg 57%
    22:00 +20°C° 0 mm 4 mps 755 mmHg 56%
    23:00 +20°C° 0 mm 4 mps 755 mmHg 55%

    30 April, Monday

    Time Temperature Precipitation Wind Pressure Humidity
    00:00 +19°C° 0 mm 4 mps 755 mmHg 55%
    01:00 +18°C° 0 mm 3 mps 755 mmHg 54%
    02:00 +18°C° 0 mm 3 mps 755 mmHg 53%
    03:00 +17°C° 0 mm 3 mps 755 mmHg 53%
    04:00 +17°C° 0 mm 3 mps 756 mmHg 53%
    05:00 +17°C° 0 mm 2 mps 756 mmHg 52%
    06:00 +17°C° 0 mm 2 mps 756 mmHg 52%
    07:00 +18°C° 0 mm 3 mps 756 mmHg 49%
    08:00 +20°C° 0 mm 4 mps 756 mmHg 47%
    09:00 +21°C° 0 mm 4 mps 756 mmHg 44%
    10:00 +22°C° 0 mm 4 mps 756 mmHg 43%
    11:00 +22°C° 0 mm 5 mps 756 mmHg 42%
    12:00 +23°C° 0 mm 5 mps 756 mmHg 40%
    13:00 +25°C° 0 mm 5 mps 755 mmHg 38%
    14:00 +25°C° 0 mm 5 mps 755 mmHg 35%
    15:00 +26°C° 0 mm 5 mps 755 mmHg 32%
    16:00 +25°C° 0 mm 5 mps 755 mmHg 35%
    17:00 +23°C° 0 mm 4 mps 755 mmHg 37%
    18:00 +22°C° 0 mm 4 mps 755 mmHg 40%
    19:00 +21°C° 0 mm 3 mps 756 mmHg 42%
    20:00 +20°C° 0 mm 3 mps 756 mmHg 45%
    21:00 +18°C° 0 mm 3 mps 757 mmHg 48%
    22:00 +18°C° 0 mm 3 mps 757 mmHg 48%
    23:00 +17°C° 0 mm 3 mps 757 mmHg 49%

    1 May, Tuesday

    Time Temperature Precipitation Wind Pressure Humidity
    00:00 +17°C° 0 mm 3 mps 757 mmHg 50%
    01:00 +16°C° 0 mm 2 mps 757 mmHg 50%
    02:00 +16°C° 0 mm 2 mps 757 mmHg 51%
    03:00 +16°C° 0 mm 2 mps 757 mmHg 52%
    04:00 +16°C° 0 mm 1 mps 757 mmHg 52%
    05:00 +16°C° 0 mm 1 mps 757 mmHg 52%
    06:00 +18°C° 0 mm 1 mps 757 mmHg 53%
    07:00 +20°C° 0 mm 1 mps 757 mmHg 48%
    08:00 +21°C° 0 mm 1 mps 757 mmHg 43%
    09:00 +23°C° 0 mm 1 mps 757 mmHg 38%
    10:00 +24°C° 0 mm 1 mps 756 mmHg 36%
    11:00 +26°C° 0 mm 1 mps 756 mmHg 35%
    12:00 +27°C° 0 mm 2 mps 755 mmHg 33%
    13:00 +27°C° 0 mm 2 mps 755 mmHg 32%
    14:00 +28°C° 0 mm 2 mps 755 mmHg 32%
    15:00 +28°C° 0 mm 3 mps 754 mmHg 32%
    16:00 +28°C° 0 mm 3 mps 754 mmHg 35%
    17:00 +27°C° 0 mm 3 mps 755 mmHg 38%
    18:00 +26°C° 0 mm 3 mps 755 mmHg 42%
    19:00 +24°C° 0 mm 3 mps 755 mmHg 47%
    20:00 +22°C° 0 mm 3 mps 756 mmHg 53%
    21:00 +20°C° 0 mm 4 mps 756 mmHg 58%
    22:00 +19°C° 0 mm 3 mps 756 mmHg 61%
    23:00 +18°C° 0 mm 2 mps 756 mmHg 65%
    Show more